Theta_e
322 322 323 324 322 322 322 322 323 323 325 325 325 325 326 329 328 324 317 325 329 334 332 329 324 326 328 324 321 314 307 305 306 305 310 309 309 311 315 315 319 323 320 323 333
323 322 322 323 323 322 322 322 323 323 325 324 324 324 325 327 322 318 326 332 334 333 328 323 317 321 321 320 322 314 307 308 310 310 309 310 308 310 311 313 315 319 325 328 330
321 322 322 322 322 322 322 322 323 323 324 325 324 324 324 325 314 315 329 331 333 333 328 328 323 318 315 320 318 315 310 310 309 307 312 305 307 310 310 310 314 315 320 325 326
320 320 321 321 321 322 322 322 323 322 323 324 324 324 324 321 298 318 328 331 331 331 326 323 320 312 311 311 317 310 314 313 313 314 314 310 309 307 310 313 316 318 322 325 324
320 319 319 320 320 321 322 322 322 322 322 323 323 323 318 309 308 322 328 329 327 328 322 320 316 312 307 310 314 312 312 314 315 314 313 308 308 308 308 313 316 314 323 325 326
318 319 319 319 319 320 321 321 321 321 322 322 322 322 310 300 318 320 325 325 323 325 322 321 317 316 310 310 310 312 313 313 315 314 312 312 313 305 312 311 313 315 319 324 326
316 317 318 318 319 319 320 320 320 320 321 321 320 316 306 302 319 321 324 323 325 323 319 322 321 314 313 309 315 312 307 311 312 312 310 313 309 307 315 312 310 314 317 322 325
315 316 317 318 318 319 319 319 319 319 321 321 320 313 299 313 318 316 324 323 326 326 323 324 323 316 313 314 311 306 306 299 306 309 310 308 304 313 312 308 309 312 316 319 323
313 315 314 316 317 317 319 318 318 318 320 319 311 307 296 313 309 315 321 315 321 321 321 320 318 313 312 306 302 303 295 298 300 310 309 306 306 313 311 309 310 311 314 317 320
312 313 315 314 314 317 318 318 317 317 315 313 310 299 302 299 308 312 318 319 315 314 312 311 311 305 306 303 293 295 296 297 297 304 307 305 306 312 311 307 308 310 311 314 317
311 312 313 314 315 317 316 310 302 300 304 298 299 296 298 306 312 308 315 315 313 310 303 306 300 296 301 303 302 300 298 296 300 304 304 303 304 308 313 313 312 314 312 311 313
310 311 312 314 313 316 313 302 302 305 294 302 302 301 303 307 300 306 314 306 304 298 303 300 295 303 304 303 301 300 298 298 301 302 303 302 303 308 310 312 312 314 315 315 313
310 310 311 312 313 310 307 304 309 309 294 296 301 299 301 303 298 301 308 305 301 298 299 295 299 303 302 300 298 298 297 297 298 300 302 300 298 301 306 310 312 312 313 314 315
309 309 311 311 305 306 300 309 307 308 287 288 294 298 301 302 295 306 310 304 300 296 299 298 302 300 299 297 299 293 302 300 298 297 291 300 290 298 302 304 307 309 311 312 313
308 309 309 311 304 300 305 309 306 298 275 291 293 304 301 295 297 299 309 304 295 296 298 294 297 298 296 298 301 297 301 299 299 296 296 296 292 297 302 300 303 308 311 313 314
308 308 308 307 306 306 309 308 301 281 274 285 292 292 292 294 295 300 301 304 302 297 299 297 299 299 299 301 302 303 298 297 298 295 287 293 293 294 298 300 304 308 311 313 314
307 308 306 306 299 310 308 299 281 276 285 282 287 291 291 289 291 293 292 292 289 285 287 293 294 297 298 297 302 300 295 286 284 284 284 295 292 295 301 304 305 306 309 312 314
307 307 306 306 308 308 303 286 277 281 283 289 289 289 286 289 289 291 290 287 292 291 288 284 283 293 297 296 295 297 295 287 281 283 286 293 288 295 304 306 308 308 309 311 312
307 304 302 305 308 306 293 280 280 282 285 286 287 284 285 288 288 289 288 288 290 292 284 284 285 293 297 299 298 295 290 298 289 283 285 290 295 301 301 301 305 307 308 308 310
299 298 297 306 307 301 286 283 282 287 288 288 282 286 283 285 286 286 286 291 290 294 294 289 281 290 291 297 299 297 299 288 288 282 281 287 290 292 297 299 302 303 305 307 309
297 289 299 306 304 290 282 284 282 288 291 288 286 285 286 285 287 285 286 288 293 292 294 291 288 287 293 291 290 292 291 291 292 289 284 283 289 300 299 301 301 304 306 307 308
293 284 300 303 287 285 284 285 287 288 290 287 289 288 287 288 285 285 285 288 293 293 288 292 287 283 286 292 298 296 293 292 286 285 287 288 289 299 302 303 303 304 305 307 308
286 287 301 299 282 283 285 285 287 287 287 288 286 288 290 287 283 286 287 290 291 291 289 291 285 280 281 285 288 287 293 294 293 288 284 284 288 301 302 299 302 303 305 306 305
287 283 288 293 289 286 284 283 283 289 286 287 287 289 287 286 286 285 285 289 291 292 294 293 286 283 279 283 286 283 285 290 289 284 285 287 288 294 299 301 302 303 302 303 304
290 285 286 283 284 285 286 285 283 283 286 288 286 287 286 282 284 283 287 288 290 292 292 290 283 285 285 286 287 286 287 288 287 288 283 287 288 292 296 294 297 301 301 299 299
287 286 287 286 286 285 286 284 284 285 286 284 285 287 287 284 285 283 287 287 287 289 290 291 284 286 282 287 287 285 287 288 288 288 287 288 287 295 297 298 298 301 304 302 303
290 293 292 287 285 285 284 285 286 286 285 288 288 286 285 287 290 292 292 291 290 289 288 288 286 281 279 284 282 277 283 284 285 286 286 283 290 295 295 297 298 299 303 303 305
Wind_Speed
22 22 20 18 18 17 15 13 12 11 10 7 6 3 3 2 1 6 12 3 5 2 3 4 2 2 2 4 3 2 4 8 5 4 6 1 4 3 1 4 5 8 3 3 14
24 24 21 20 19 19 17 15 14 13 11 9 7 5 2 2 5 14 5 8 6 3 3 9 7 5 3 3 4 5 7 15 4 4 6 6 2 4 5 7 7 7 7 5 14
26 25 23 22 21 19 18 15 15 14 12 11 8 6 4 6 3 8 15 17 9 8 5 2 5 4 5 5 5 6 10 7 6 4 6 6 5 3 7 8 13 12 12 12 15
27 25 24 22 22 21 20 18 14 14 13 11 9 7 7 6 11 3 2 17 16 10 9 5 9 8 8 8 6 6 7 7 4 6 1 5 9 6 11 17 5 6 7 16 18
26 26 25 24 22 21 21 20 17 15 14 12 11 9 7 10 15 3 4 7 14 13 14 13 13 11 12 9 8 10 8 10 8 5 5 2 10 11 13 15 10 2 10 16 17
22 25 25 25 24 23 22 21 19 17 16 13 11 11 9 21 5 1 2 5 11 17 16 16 10 7 9 7 15 9 12 12 9 8 5 5 8 2 7 6 12 8 12 14 16
20 19 25 25 26 24 23 22 20 18 16 15 13 10 11 19 2 3 6 5 12 18 14 16 7 12 7 6 6 5 8 10 13 11 6 7 11 16 15 10 10 13 10 13 15
20 16 16 27 27 26 23 23 21 19 17 16 13 9 8 3 9 4 3 5 10 9 13 9 8 10 8 4 6 9 7 13 8 15 6 11 20 16 5 9 15 13 12 12 16
19 17 16 16 24 27 25 23 21 20 18 14 9 8 9 5 14 11 5 12 9 7 5 3 4 8 9 12 10 11 13 18 10 13 8 14 14 14 6 9 14 14 13 12 12
19 17 18 19 17 25 25 24 21 18 14 9 5 6 8 13 9 15 5 8 6 6 5 7 7 12 13 15 20 15 17 10 14 10 14 13 21 12 10 7 9 13 12 12 13
18 17 17 19 20 27 23 17 10 9 19 15 14 3 2 8 10 17 10 7 11 6 11 10 11 18 30 27 15 10 16 13 11 8 9 16 21 21 16 13 14 17 14 15 16
19 18 18 18 18 18 19 18 28 6 18 9 6 6 3 6 8 14 15 14 17 16 14 7 19 30 17 16 13 12 12 13 7 6 10 13 17 20 19 20 17 17 17 18 15
21 19 17 16 17 12 10 24 16 19 6 11 8 18 8 7 6 18 23 19 14 18 18 19 13 17 12 14 19 16 19 12 10 4 9 11 21 25 21 22 21 19 19 19 19
20 21 18 18 12 9 15 22 12 7 7 12 10 13 7 7 5 11 14 18 10 21 21 15 17 9 13 13 13 19 18 8 7 7 10 11 11 16 15 21 25 24 19 21 21
21 21 22 22 6 16 9 24 13 4 10 22 13 10 12 13 12 7 5 10 21 10 13 10 11 23 11 26 19 13 11 16 17 15 11 13 11 12 17 20 23 21 20 22 21
21 22 22 15 11 8 19 22 12 7 9 11 16 17 16 13 7 9 12 6 5 10 11 7 1 5 21 15 18 9 3 7 13 14 16 27 19 15 20 18 17 19 20 21 22
24 24 21 13 18 14 18 11 12 9 8 10 21 24 27 13 14 15 19 21 14 13 18 23 14 1 2 13 13 16 13 4 8 8 11 16 18 26 7 21 19 21 21 19 19
24 24 20 15 13 17 16 11 12 10 15 12 20 25 19 21 11 16 20 16 23 19 7 16 13 23 16 9 14 21 20 7 13 7 19 10 12 21 18 25 23 17 18 17 16
26 14 12 15 17 13 15 21 9 18 11 19 22 23 9 13 10 15 17 18 20 22 14 16 18 6 16 14 11 9 20 24 8 0 5 8 21 23 5 9 15 21 18 21 18
14 11 14 19 18 13 12 14 10 12 13 22 16 19 18 25 18 22 21 19 19 22 12 7 6 13 10 15 19 18 6 12 9 10 11 9 23 16 15 21 16 14 17 19 17
11 10 11 20 16 12 11 10 8 15 20 19 17 15 18 23 18 23 22 6 24 20 15 5 4 5 10 16 23 16 16 9 4 14 10 18 16 18 19 14 18 21 22 23 20
10 10 14 20 15 11 12 10 12 22 9 7 9 10 22 25 20 19 20 15 19 16 25 11 3 9 14 1 6 19 18 21 11 9 6 16 25 3 12 19 18 22 25 25 22
10 5 12 20 17 14 5 10 12 19 18 12 7 6 16 21 14 17 15 11 16 21 19 16 10 6 4 6 11 12 15 15 13 4 7 12 24 18 18 8 12 16 17 15 8
7 8 8 14 5 10 17 10 13 11 6 7 11 18 22 20 4 20 14 6 12 17 7 16 6 13 17 9 2 8 18 18 14 10 18 17 25 28 23 18 22 17 12 14 11
5 6 3 16 17 12 18 18 26 14 5 9 8 22 15 12 9 8 14 8 11 13 12 13 8 10 17 13 9 11 13 12 17 27 19 23 23 29 16 21 24 19 16 12 14
8 7 3 18 20 19 20 18 33 17 15 13 17 20 14 12 12 15 17 13 8 7 13 12 3 8 8 14 13 13 17 17 17 20 16 18 24 34 26 21 23 22 23 20 23
3 3 11 17 20 16 11 23 26 21 5 7 21 17 12 14 11 13 8 10 15 17 19 14 7 5 10 11 5 7 21 21 22 22 20 22 26 33 31 25 25 25 24 26 23
Wind_Direction
221 220 220 218 211 204 209 217 215 207 201 192 177 194 249 254 199 223 230 222 236 323 184 167 175 120 120 110 101 128 213 255 251 241 287 73 229 145 19 204 202 192 248 61 144
213 216 218 213 208 204 205 209 213 203 195 190 179 173 188 194 241 245 204 254 246 263 211 195 191 161 141 129 131 182 196 230 221 292 298 310 279 319 230 212 217 215 191 142 159
216 212 213 216 213 201 198 206 205 198 184 171 163 166 164 139 283 248 213 229 233 234 278 242 188 175 174 177 176 159 228 189 146 117 351 320 291 259 254 235 244 231 197 168 178
217 215 211 211 213 206 198 196 196 188 179 167 161 166 156 187 221 86 317 225 215 216 224 206 183 189 190 189 181 197 197 186 210 153 186 290 313 267 243 258 356 280 203 172 186
218 213 211 209 209 207 200 193 187 180 178 174 166 161 168 207 221 153 312 236 204 197 201 204 191 194 199 199 179 230 202 212 220 238 186 250 256 285 269 262 245 282 180 185 192
219 213 214 206 205 207 203 193 188 180 173 173 177 168 206 224 215 266 352 113 182 197 201 201 214 199 210 210 205 209 219 216 215 230 250 186 260 265 257 321 236 214 204 199 199
217 213 214 208 204 202 201 198 189 182 177 174 181 179 219 223 78 310 214 184 189 196 196 205 213 195 156 190 212 212 206 231 230 239 244 222 238 239 260 259 257 233 216 208 207
218 203 208 213 201 198 195 194 189 179 173 172 170 185 233 230 232 287 171 161 183 199 217 213 219 219 219 135 157 211 233 231 220 206 188 250 255 247 241 245 252 238 228 215 214
215 199 193 204 203 195 189 191 182 175 171 156 150 193 225 133 203 219 195 203 162 165 163 152 174 209 189 200 201 207 234 225 226 206 178 212 256 244 209 226 250 244 229 220 224
211 208 185 186 204 207 188 179 174 166 155 127 142 181 207 209 174 187 176 207 150 132 117 187 202 202 206 204 216 206 228 220 220 194 206 213 250 242 217 188 244 259 251 234 226
207 208 204 186 194 202 183 163 163 169 181 187 189 151 126 142 149 193 176 177 187 186 198 184 205 205 206 211 224 287 221 238 218 191 209 238 247 248 253 246 245 250 250 243 238
205 202 203 201 196 194 189 184 181 137 176 206 204 174 134 170 152 177 175 187 199 212 209 199 212 218 219 213 220 225 233 225 228 191 228 252 251 260 251 248 242 248 252 249 250
201 201 201 197 195 194 208 187 169 144 149 195 180 186 158 190 164 178 186 190 201 207 203 203 229 227 213 209 202 221 230 227 247 197 253 271 264 258 248 246 241 238 243 254 247
207 199 196 194 198 189 200 176 170 199 160 167 184 195 167 171 164 180 202 186 204 221 215 220 230 204 197 213 195 221 211 239 243 232 250 195 277 246 245 230 235 237 226 239 243
208 205 196 188 138 196 198 165 178 332 207 160 166 146 169 180 127 178 185 192 200 196 199 202 212 213 208 217 203 236 216 221 235 246 271 238 266 262 239 235 236 230 226 234 234
203 204 198 200 207 178 161 163 153 196 203 161 145 164 155 183 155 135 172 209 181 217 230 248 211 209 225 223 216 163 126 218 235 238 242 243 241 246 233 233 244 239 234 232 231
207 200 200 197 203 163 159 160 182 203 140 158 168 162 175 169 151 170 175 184 177 181 215 218 209 130 65 208 208 207 199 222 222 223 244 227 231 238 262 230 241 247 247 237 237
201 200 205 203 189 169 177 190 192 134 165 179 164 163 177 147 161 173 165 182 209 210 206 207 215 210 188 223 211 205 200 203 220 217 234 156 229 243 233 249 248 246 253 256 253
198 199 196 194 184 168 197 194 171 155 165 158 150 162 148 161 143 169 187 191 194 196 192 198 233 236 204 201 213 182 215 232 283 101 285 217 245 265 215 248 234 244 246 248 247
189 192 201 185 182 175 202 195 138 164 148 146 154 181 172 166 167 183 186 198 195 194 210 186 233 218 212 205 216 239 175 216 214 202 229 221 243 246 195 216 227 240 252 261 253
180 187 185 179 174 180 218 187 130 159 150 161 159 172 179 174 176 186 184 177 194 188 193 188 226 120 170 199 207 209 227 220 262 231 240 254 250 246 243 225 229 233 240 246 251
172 189 166 166 184 188 207 152 142 160 170 117 138 166 176 175 175 186 189 202 189 165 199 196 309 237 218 62 292 231 226 222 258 235 231 253 262 120 225 232 223 223 225 237 242
170 132 172 171 189 174 155 146 140 163 165 136 131 165 165 169 172 197 196 191 179 179 180 170 222 212 242 236 239 228 225 237 250 281 257 258 262 264 248 270 257 256 255 255 256
150 151 157 191 157 180 161 150 134 178 125 97 113 141 146 171 125 186 200 169 188 192 151 169 207 214 224 217 40 207 231 224 210 239 253 247 285 284 290 272 268 272 267 267 263
153 152 196 175 183 166 155 155 145 164 97 128 147 162 151 153 151 184 173 144 161 179 173 183 219 222 253 274 287 275 267 266 246 238 240 259 267 275 285 297 303 283 279 270 270
139 134 164 154 154 159 140 169 156 155 162 180 158 164 161 150 176 160 155 168 153 166 180 201 235 201 267 260 251 253 268 265 249 251 253 252 263 267 269 272 275 281 283 274 271
147 95 135 140 154 157 156 161 166 147 38 121 136 129 108 139 138 157 126 136 155 165 187 188 193 173 249 254 283 256 233 241 244 246 242 251 254 275 269 262 255 259 259 269 267